WXM80 ListenWXM80 Stop

You find our weather info also at:

UK Metoffice

WeatherCloud

Weather Underground

Northeastern Weather Network

AWEKAS

Citizen Weather Observer Program (CWOP)

HAMweather, WeatherForYou, PWS Weather


Weather Underground History page Text

Daily Summary for November 7, 2017 Units:  Metric    English   Both
« Previous Day
Next Day »
Daily Weekly Monthly Yearly Custom
  High: Low: Average:
Temperature: 10.2 °C 5.7 °C 8.1 °C
Dew Point: 6.1 °C 3.8 °C 5 °C
Humidity: 96 % 69 % 81 %
Wind Speed: 20.3 km/h 1.3 km/h 9.7 km/h
Wind Gust: 33.3 km/h - -
Wind:- - ENE
Pressure: 1023.6 hPa 1013.1 hPa -
Precipitation: 1.78 mm    
Historical Graphs
 
 
Tabular Data for November 7, 2017
Time Temperature Dew Point Pressure Wind Wind Speed Wind Gust Humidity Rainfall Rate (Hourly)
00:04 9.5 °C 5.8 °C 1019.5 hPa NNE 13.5 km/h 20.9 km/h 78 % 0 mm
00:09 9.4 °C 6 °C 1019.5 hPa North 10.3 km/h 20.4 km/h 79 % 0 mm
00:14 9.3 °C 5.9 °C 1019.5 hPa NE 11.3 km/h 17.7 km/h 79 % 0 mm
00:19 9.3 °C 5.7 °C 1019.5 hPa NNE 8.4 km/h 11.1 km/h 78 % 0 mm
00:24 9.3 °C 5.8 °C 1019.5 hPa North 7.9 km/h 13 km/h 79 % 0 mm
00:29 9.2 °C 5.6 °C 1019.5 hPa North 12.1 km/h 18.5 km/h 78 % 0 mm
00:34 9.2 °C 5.6 °C 1019.5 hPa NE 12.1 km/h 18.5 km/h 78 % 0 mm
00:39 9.2 °C 5.6 °C 1019.5 hPa NNW 9.2 km/h 18.5 km/h 78 % 0 mm
00:44 9.2 °C 5.6 °C 1019.5 hPa NNE 12.6 km/h 22.2 km/h 78 % 0 mm
00:49 9.1 °C 5.3 °C 1019.5 hPa North 7.9 km/h 14.8 km/h 77 % 0 mm
00:54 9.1 °C 5.4 °C 1019.9 hPa NNE 9.3 km/h 16.7 km/h 78 % 0 mm
00:59 9.1 °C 5.4 °C 1019.9 hPa North 11.4 km/h 18.5 km/h 78 % 0 mm
01:04 9 °C 5.2 °C 1019.5 hPa NNW 13.4 km/h 18.5 km/h 77 % 0 mm
01:09 9 °C 5.2 °C 1019.9 hPa NNE 12.7 km/h 16.7 km/h 77 % 0 mm
01:20 8.9 °C 5.1 °C 1019.9 hPa NNE 9.2 km/h 18.5 km/h 77 % 0 mm
01:25 8.9 °C 5.1 °C 1019.9 hPa North 6 km/h 9.3 km/h 77 % 0 mm
01:30 8.9 °C 4.9 °C 1019.9 hPa NNE 8.2 km/h 20.4 km/h 76 % 0 mm
01:35 8.8 °C 5 °C 1019.9 hPa NNE 12.4 km/h 18.5 km/h 77 % 0 mm
01:40 8.8 °C 4.8 °C 1019.9 hPa North 11.7 km/h 18.5 km/h 76 % 0 mm
01:45 8.8 °C 4.8 °C 1019.9 hPa North 13.8 km/h 18.5 km/h 76 % 0 mm
01:50 8.8 °C 4.8 °C 1019.9 hPa North 13.4 km/h 18.5 km/h 76 % 0 mm
01:55 8.7 °C 4.6 °C 1019.9 hPa NNE 14.6 km/h 22.2 km/h 75 % 0 mm
02:00 8.7 °C 4.5 °C 1019.9 hPa NNW 8.2 km/h 24.1 km/h 75 % 0 mm
02:05 8.7 °C 4.7 °C 1019.9 hPa NNW 8.5 km/h 18.5 km/h 76 % 0 mm
02:10 8.6 °C 4.6 °C 1019.9 hPa NE 13 km/h 18.5 km/h 76 % 0 mm
02:15 8.6 °C 4.8 °C 1019.9 hPa NNW 11.4 km/h 16.7 km/h 77 % 0 mm
02:20 8.6 °C 4.8 °C 1019.9 hPa NNW 9.8 km/h 14.8 km/h 77 % 0 mm
02:25 8.5 °C 4.7 °C 1020.2 hPa North 9.2 km/h 18.5 km/h 77 % 0 mm
02:30 8.5 °C 4.7 °C 1019.9 hPa North 8.4 km/h 13 km/h 77 % 0 mm
02:35 8.4 °C 4.8 °C 1019.9 hPa NNE 5.8 km/h 11.1 km/h 78 % 0 mm
02:40 8.4 °C 5 °C 1020.2 hPa North 8.2 km/h 13 km/h 79 % 0 mm
02:45 8.3 °C 4.9 °C 1020.2 hPa NNE 13.8 km/h 19.3 km/h 79 % 0 mm
02:50 8.3 °C 4.7 °C 1020.2 hPa North 11.6 km/h 24.1 km/h 78 % 0 mm
02:55 8.3 °C 4.7 °C 1020.2 hPa NNE 10.8 km/h 19.3 km/h 78 % 0 mm
03:00 8.2 °C 4.6 °C 1020.5 hPa North 10.9 km/h 27.8 km/h 78 % 0 mm
03:05 8.2 °C 4.6 °C 1020.5 hPa NNE 10.9 km/h 18.5 km/h 78 % 0 mm
03:10 8.1 °C 4.3 °C 1020.5 hPa NNE 13.8 km/h 18.5 km/h 77 % 0 mm
03:15 8 °C 4.2 °C 1020.5 hPa NNE 11.4 km/h 20.4 km/h 77 % 0 mm
03:20 7.9 °C 4.3 °C 1020.5 hPa NNE 13.4 km/h 25.9 km/h 78 % 0 mm
03:25 7.9 °C 4.3 °C 1020.9 hPa NNE 6.9 km/h 11.1 km/h 78 % 0 mm
03:30 7.8 °C 4.2 °C 1020.9 hPa North 10.3 km/h 19.3 km/h 78 % 0 mm
03:35 7.8 °C 4.2 °C 1020.9 hPa North 8.9 km/h 14.8 km/h 78 % 0 mm
03:40 7.7 °C 4.3 °C 1020.9 hPa North 12.9 km/h 16.7 km/h 79 % 0 mm
03:45 7.7 °C 4.3 °C 1020.9 hPa NNW 13 km/h 22.2 km/h 79 % 0 mm
03:50 7.7 °C 4.3 °C 1020.9 hPa NNE 12.1 km/h 20.4 km/h 79 % 0 mm
03:56 7.6 °C 4.2 °C 1021.2 hPa NNE 9.2 km/h 18.5 km/h 79 % 0 mm
04:01 7.6 °C 3.9 °C 1021.2 hPa NW 7.1 km/h 14.8 km/h 78 % 0 mm
04:06 7.5 °C 4.1 °C 1021.2 hPa NNE 14 km/h 20.4 km/h 79 % 0 mm
04:11 7.5 °C 4.1 °C 1021.6 hPa NE 15.8 km/h 24.1 km/h 79 % 0 mm
04:16 7.4 °C 4.1 °C 1021.2 hPa North 7.7 km/h 14.8 km/h 79 % 0 mm
04:21 7.4 °C 4.1 °C 1021.6 hPa North 12.9 km/h 20.9 km/h 79 % 0 mm
04:26 7.4 °C 3.8 °C 1021.6 hPa North 9.7 km/h 25.7 km/h 78 % 0 mm
04:31 7.3 °C 3.9 °C 1021.6 hPa North 15.1 km/h 19.3 km/h 79 % 0 mm
04:35 7.3 °C 3.9 °C 1021.6 hPa NE 8.2 km/h 18.5 km/h 79 % 0 mm
04:40 7.3 °C 4.1 °C 1021.6 hPa North 8 km/h 14.8 km/h 80 % 0 mm
04:46 7.3 °C 4.1 °C 1021.6 hPa North 11.3 km/h 20.9 km/h 80 % 0 mm
04:51 7.2 °C 3.8 °C 1021.6 hPa North 10 km/h 14.8 km/h 79 % 0 mm
04:56 7.2 °C 3.8 °C 1021.6 hPa North 11.3 km/h 20.9 km/h 79 % 0 mm
05:01 7.2 °C 3.8 °C 1021.9 hPa North 10.9 km/h 16.7 km/h 79 % 0 mm
05:06 7.2 °C 3.8 °C 1021.9 hPa NNE 11.3 km/h 20.9 km/h 79 % 0 mm
05:11 7.2 °C 4 °C 1021.6 hPa NNE 11.3 km/h 22.5 km/h 80 % 0 mm
05:16 7.2 °C 4 °C 1021.6 hPa NNE 14.5 km/h 20.9 km/h 80 % 0 mm
05:21 7.2 °C 3.8 °C 1021.6 hPa NNE 11.1 km/h 18.5 km/h 79 % 0 mm
05:25 7.2 °C 3.9 °C 1021.6 hPa North 11.4 km/h 18.5 km/h 80 % 0 mm
05:30 7.2 °C 3.9 °C 1021.6 hPa NNE 11.3 km/h 16.7 km/h 80 % 0 mm
05:35 7.1 °C 3.9 °C 1021.6 hPa NE 9.8 km/h 20.4 km/h 80 % 0 mm
05:40 7.1 °C 3.9 °C 1021.6 hPa NE 11.1 km/h 16.7 km/h 80 % 0 mm
05:45 7.1 °C 3.9 °C 1021.6 hPa East 4.7 km/h 11.1 km/h 80 % 0 mm
05:51 7.1 °C 3.8 °C 1021.6 hPa NNE 11.3 km/h 19.3 km/h 80 % 0 mm
05:56 7.1 °C 3.8 °C 1021.6 hPa NNE 4.8 km/h 20.9 km/h 80 % 0 mm
06:01 7.1 °C 4 °C 1021.9 hPa NNW 9.8 km/h 14.5 km/h 81 % 0 mm
06:06 7.1 °C 4 °C 1021.9 hPa NNE 8 km/h 19.3 km/h 81 % 0 mm
06:11 7.1 °C 4 °C 1021.9 hPa NNE 9.7 km/h 19.3 km/h 81 % 0 mm
06:16 7.1 °C 4 °C 1021.9 hPa NNE 3.7 km/h 13 km/h 81 % 0 mm
06:21 7.1 °C 4 °C 1021.9 hPa NE 7.2 km/h 16.7 km/h 81 % 0 mm
06:26 7.1 °C 4 °C 1021.9 hPa North 3.9 km/h 14.8 km/h 81 % 0 mm
06:36 7.1 °C 4 °C 1021.9 hPa NNE 5.5 km/h 11.1 km/h 81 % 0 mm
06:41 7.1 °C 4.2 °C 1021.9 hPa NNE 11.1 km/h 16.7 km/h 82 % 0 mm
06:46 7.1 °C 4.2 °C 1021.9 hPa ENE 9.8 km/h 18.5 km/h 82 % 0 mm
06:51 7.1 °C 4.1 °C 1021.9 hPa NNE 7.4 km/h 14.8 km/h 81 % 0 mm
06:56 7.2 °C 4.1 °C 1022.2 hPa NNE 11.1 km/h 18.5 km/h 81 % 0 mm
07:01 7.2 °C 4.2 °C 1022.2 hPa NNE 7.4 km/h 18.5 km/h 81 % 0 mm
07:06 7.3 °C 4.2 °C 1022.6 hPa NE 6.6 km/h 18.5 km/h 81 % 0 mm
07:11 7.3 °C 4.2 °C 1022.6 hPa NE 6.9 km/h 22.2 km/h 81 % 0 mm
07:16 7.3 °C 4.3 °C 1022.2 hPa NE 7.4 km/h 11.1 km/h 81 % 0 mm
07:21 7.4 °C 4.3 °C 1022.2 hPa NNE 6.6 km/h 14.8 km/h 81 % 0 mm
07:31 7.4 °C 4.6 °C 1022.2 hPa NNE 5.3 km/h 7.4 km/h 82 % 0 mm
07:36 7.5 °C 4.4 °C 1022.2 hPa ENE 13.7 km/h 22.2 km/h 81 % 0 mm
07:41 7.6 °C 4.3 °C 1022.2 hPa ENE 11.1 km/h 16.7 km/h 80 % 0 mm
07:46 7.6 °C 4.2 °C 1022.6 hPa ENE 9.3 km/h 18.5 km/h 79 % 0 mm
07:51 7.7 °C 4.4 °C 1022.6 hPa NE 6.3 km/h 14.5 km/h 80 % 0 mm
07:56 7.7 °C 4.4 °C 1022.6 hPa NE 7.4 km/h 11.1 km/h 80 % 0 mm
08:06 7.8 °C 4.7 °C 1022.9 hPa NE 11.9 km/h 16.7 km/h 81 % 0 mm
08:11 7.8 °C 4.7 °C 1023.2 hPa North 11.1 km/h 16.7 km/h 81 % 0 mm
08:16 7.8 °C 4.6 °C 1022.9 hPa ENE 13.7 km/h 20.4 km/h 80 % 0 mm
08:21 7.8 °C 4.6 °C 1022.9 hPa ENE 9.7 km/h 16.7 km/h 80 % 0 mm
08:26 7.9 °C 4.9 °C 1022.9 hPa ENE 10.8 km/h 18.5 km/h 81 % 0 mm
08:31 8 °C 5.1 °C 1023.2 hPa NE 13.2 km/h 22.2 km/h 82 % 0 mm
08:36 8 °C 4.9 °C 1022.9 hPa ENE 11.9 km/h 18.5 km/h 81 % 0 mm
08:41 8.1 °C 5 °C 1023.2 hPa ESE 9 km/h 18.5 km/h 81 % 0 mm
08:46 8.2 °C 5.1 °C 1022.9 hPa NE 7.2 km/h 18.5 km/h 81 % 0 mm
08:51 8.3 °C 5.1 °C 1022.9 hPa NNE 10.5 km/h 16.7 km/h 80 % 0 mm
08:56 8.4 °C 5.1 °C 1022.6 hPa NNE 5 km/h 7.4 km/h 80 % 0 mm
09:01 8.4 °C 5 °C 1022.6 hPa East 8.5 km/h 13 km/h 79 % 0 mm
09:06 8.4 °C 4.8 °C 1022.9 hPa ENE 12.7 km/h 18.5 km/h 78 % 0 mm
09:11 8.4 °C 4.8 °C 1023.2 hPa NE 9.5 km/h 16.7 km/h 78 % 0 mm
09:16 8.4 °C 5 °C 1022.9 hPa ENE 10.6 km/h 16.7 km/h 79 % 0 mm
09:21 8.6 °C 5.1 °C 1023.2 hPa North 5.1 km/h 11.1 km/h 79 % 0 mm
09:26 8.7 °C 5.3 °C 1022.9 hPa NNE 5 km/h 9.3 km/h 79 % 0 mm
09:31 8.8 °C 5.2 °C 1022.9 hPa North 6.4 km/h 14.8 km/h 78 % 0 mm
09:36 8.8 °C 4.8 °C 1023.2 hPa NE 8.5 km/h 14.8 km/h 76 % 0 mm
09:41 8.8 °C 4.8 °C 1023.6 hPa NW 4.8 km/h 14.8 km/h 76 % 0 mm
09:46 8.9 °C 4.9 °C 1023.2 hPa ENE 10.3 km/h 16.7 km/h 76 % 0 mm
09:51 8.9 °C 5.1 °C 1023.6 hPa NE 2.4 km/h 5.6 km/h 77 % 0 mm
09:57 9.1 °C 5.3 °C 1023.2 hPa NE 6.8 km/h 13 km/h 77 % 0 mm
10:02 9.2 °C 5.4 °C 1023.2 hPa NNE 5.1 km/h 7.4 km/h 77 % 0 mm
10:07 9.4 °C 5.6 °C 1022.9 hPa ENE 5.1 km/h 11.1 km/h 77 % 0 mm
10:12 9.6 °C 5.2 °C 1022.9 hPa NNE 5.3 km/h 9.3 km/h 74 % 0 mm
10:17 9.7 °C 5.4 °C 1022.9 hPa ENE 7.7 km/h 13 km/h 75 % 0 mm
10:22 9.9 °C 5.7 °C 1022.9 hPa North 7.9 km/h 14.8 km/h 75 % 0 mm
10:27 10.1 °C 5.4 °C 1022.9 hPa NNE 4.7 km/h 11.3 km/h 73 % 0 mm
10:32 10.2 °C 5.7 °C 1022.6 hPa NNE 11.4 km/h 16.7 km/h 74 % 0 mm
10:37 10.2 °C 5.6 °C 1022.6 hPa NE 4 km/h 11.1 km/h 73 % 0 mm
10:42 10.1 °C 5.5 °C 1022.6 hPa NNE 4.3 km/h 13 km/h 73 % 0 mm
10:47 10.1 °C 5.4 °C 1022.6 hPa North 7.2 km/h 13 km/h 73 % 0 mm
10:52 10.1 °C 5.6 °C 1022.6 hPa NE 7.4 km/h 14.8 km/h 74 % 0 mm
10:58 10 °C 5.4 °C 1022.6 hPa NNE 3.4 km/h 11.1 km/h 73 % 0 mm
11:03 9.9 °C 5.1 °C 1022.6 hPa NE 1.3 km/h 11.1 km/h 72 % 0 mm
11:08 9.9 °C 5.1 °C 1022.2 hPa ENE 5.5 km/h 9.3 km/h 72 % 0 mm
11:13 9.9 °C 5.1 °C 1022.6 hPa NE 2.6 km/h 11.1 km/h 72 % 0 mm
11:18 9.9 °C 5.1 °C 1022.6 hPa NNE 6.3 km/h 11.1 km/h 72 % 0 mm
11:23 9.9 °C 4.9 °C 1022.6 hPa ENE 2.1 km/h 4.8 km/h 71 % 0 mm
11:28 10 °C 5.4 °C 1022.6 hPa North 6.9 km/h 11.1 km/h 73 % 0 mm
11:33 10 °C 5.2 °C 1022.6 hPa NE 3.5 km/h 11.1 km/h 72 % 0 mm
11:38 10 °C 5.2 °C 1022.6 hPa NNE 7.4 km/h 13 km/h 72 % 0 mm
11:43 10.1 °C 5.1 °C 1022.2 hPa NNE 9.7 km/h 13 km/h 71 % 0 mm
11:48 10.1 °C 5.4 °C 1021.9 hPa NE 3.5 km/h 7.4 km/h 73 % 0 mm
11:53 10.1 °C 5.2 °C 1022.2 hPa North 3.2 km/h 13 km/h 72 % 0 mm
11:58 10.1 °C 5.2 °C 1022.2 hPa NE 6.9 km/h 9.7 km/h 72 % 0 mm
12:03 10.1 °C 5.3 °C 1021.9 hPa North 6.4 km/h 11.1 km/h 72 % 0 mm
12:08 10.1 °C 5.3 °C 1021.9 hPa NNE 6.9 km/h 8 km/h 72 % 0 mm
12:13 10.1 °C 5.3 °C 1022.2 hPa NNE 7.1 km/h 9.7 km/h 72 % 0 mm
12:18 10.1 °C 5.3 °C 1022.2 hPa North 5.1 km/h 9.7 km/h 72 % 0 mm
12:23 10.1 °C 5.3 °C 1022.2 hPa NNE 4.8 km/h 7.4 km/h 72 % 0 mm
12:28 10.1 °C 5.3 °C 1022.2 hPa NNE 10.1 km/h 12.9 km/h 72 % 0 mm
12:33 10.1 °C 5.2 °C 1022.2 hPa NNE 6.3 km/h 11.1 km/h 72 % 0 mm
12:38 10.1 °C 5.2 °C 1022.2 hPa NNE 3.4 km/h 11.3 km/h 72 % 0 mm
12:44 10.1 °C 5.2 °C 1022.2 hPa NNE 7.6 km/h 11.1 km/h 72 % 0 mm
12:49 10.1 °C 5.3 °C 1021.9 hPa NNW 7.9 km/h 13 km/h 72 % 0 mm
12:54 10.2 °C 5.3 °C 1021.9 hPa NNE 7.2 km/h 14.8 km/h 72 % 0 mm
12:59 10.2 °C 5.2 °C 1021.9 hPa North 3.1 km/h 13 km/h 71 % 0 mm
13:04 10.2 °C 5.4 °C 1021.6 hPa North 7.1 km/h 11.1 km/h 72 % 0 mm
13:09 10.2 °C 5.2 °C 1021.6 hPa ENE 5.8 km/h 18.5 km/h 71 % 0 mm
13:14 10.2 °C 5.4 °C 1021.6 hPa NNE 7.6 km/h 14.8 km/h 72 % 0 mm
13:19 10.2 °C 5.2 °C 1021.6 hPa NE 5 km/h 14.5 km/h 71 % 0 mm
13:24 10.2 °C 5.2 °C 1021.6 hPa NNE 7.9 km/h 18.5 km/h 71 % 0 mm
13:29 10.1 °C 5.1 °C 1021.6 hPa NE 4.2 km/h 7.4 km/h 71 % 0 mm
13:34 10.1 °C 5.2 °C 1021.2 hPa ENE 4.3 km/h 8 km/h 72 % 0 mm
13:39 10.1 °C 5.1 °C 1020.5 hPa ENE 7.1 km/h 13 km/h 71 % 0 mm
13:44 10.1 °C 5.1 °C 1020.5 hPa NNE 7.1 km/h 14.8 km/h 71 % 0 mm
13:49 10.1 °C 5.1 °C 1020.2 hPa NNE 7.4 km/h 14.8 km/h 71 % 0 mm
13:54 10.1 °C 4.6 °C 1020.2 hPa ENE 11.6 km/h 16.7 km/h 69 % 0 mm
13:59 10.1 °C 5.1 °C 1019.9 hPa ENE 10.5 km/h 18.5 km/h 71 % 0 mm
14:04 10.1 °C 5.1 °C 1019.2 hPa East 10.8 km/h 16.1 km/h 71 % 0 mm
14:09 10.1 °C 4.8 °C 1018.8 hPa ENE 14.6 km/h 20.4 km/h 70 % 0 mm
14:14 10.1 °C 4.9 °C 1018.8 hPa NNE 5.6 km/h 13 km/h 70 % 0 mm
14:19 10.1 °C 5.1 °C 1018.8 hPa ENE 12.2 km/h 18.5 km/h 71 % 0 mm
14:24 10.2 °C 5.2 °C 1019.2 hPa NNE 6.9 km/h 13 km/h 71 % 0 mm
14:29 10.2 °C 5.3 °C 1019.2 hPa ENE 6 km/h 14.8 km/h 72 % 0 mm
14:34 10.2 °C 4.7 °C 1019.9 hPa ENE 13.2 km/h 20.4 km/h 69 % 0 mm
14:39 10.1 °C 4.7 °C 1020.2 hPa ENE 7.4 km/h 9.3 km/h 69 % 0 mm
14:44 10.1 °C 4.7 °C 1020.2 hPa NE 10.6 km/h 14.8 km/h 69 % 0 mm
14:49 10.1 °C 4.8 °C 1020.5 hPa ENE 7.2 km/h 13 km/h 70 % 0 mm
14:54 10.1 °C 4.8 °C 1020.5 hPa NE 8 km/h 11.1 km/h 70 % 0 mm
14:59 10 °C 4.8 °C 1020.9 hPa ENE 4.3 km/h 14.8 km/h 70 % 0 mm
15:04 9.9 °C 4.9 °C 1020.9 hPa NE 5.1 km/h 9.3 km/h 71 % 0 mm
15:09 9.9 °C 4.7 °C 1021.2 hPa ENE 3.9 km/h 7.4 km/h 70 % 0 mm
15:14 9.9 °C 4.7 °C 1020.9 hPa NE 3.4 km/h 5.6 km/h 70 % 0 mm
15:19 9.8 °C 4.8 °C 1021.2 hPa ENE 2.4 km/h 5.6 km/h 71 % 0 mm
15:24 9.8 °C 4.8 °C 1021.6 hPa ENE 4.5 km/h 7.4 km/h 71 % 0 mm
15:34 9.8 °C 4.8 °C 1021.6 hPa North 7.9 km/h 9.7 km/h 71 % 0 mm
15:39 9.7 °C 4.7 °C 1021.2 hPa NE 2.4 km/h 6.4 km/h 71 % 0 mm
15:44 9.7 °C 4.8 °C 1021.2 hPa NE 3.2 km/h 9.7 km/h 72 % 0 mm
15:55 9.6 °C 4.9 °C 1021.2 hPa NNE 9.3 km/h 12.9 km/h 73 % 0 mm
16:00 9.6 °C 5.2 °C 1020.9 hPa ENE 5 km/h 9.3 km/h 74 % 0 mm
16:05 9.5 °C 5.1 °C 1020.9 hPa NNE 3.2 km/h 14.5 km/h 74 % 0 mm
16:10 9.4 °C 5 °C 1020.5 hPa NNE 8.4 km/h 16.7 km/h 74 % 0 mm
16:15 9.3 °C 5.1 °C 1020.5 hPa ENE 5.5 km/h 7.4 km/h 75 % 0 mm
16:20 9.3 °C 5.3 °C 1020.5 hPa North 9 km/h 14.8 km/h 76 % 0 mm
16:25 9.2 °C 5.2 °C 1020.5 hPa NNE 9.7 km/h 22.5 km/h 76 % 0 mm
16:30 9.2 °C 5.2 °C 1020.5 hPa NNE 9.2 km/h 13 km/h 76 % 0 mm
16:35 9.2 °C 5.3 °C 1020.5 hPa NNE 10.1 km/h 20.4 km/h 77 % 0 mm
16:40 9.1 °C 5.2 °C 1020.5 hPa NNE 11.4 km/h 18.5 km/h 77 % 0 mm
16:45 8.9 °C 5.3 °C 1020.5 hPa NNW 11.3 km/h 18.5 km/h 78 % 0 mm
16:50 8.8 °C 5.2 °C 1020.5 hPa NNE 9.7 km/h 19.3 km/h 78 % 0 mm
16:55 8.7 °C 5.3 °C 1020.9 hPa North 9.7 km/h 16.7 km/h 79 % 0 mm
17:00 8.6 °C 5.3 °C 1020.5 hPa NNE 7.6 km/h 18.5 km/h 80 % 0 mm
17:05 8.4 °C 5.4 °C 1020.5 hPa NE 10 km/h 20.4 km/h 81 % 0 mm
17:10 8.3 °C 5.6 °C 1020.5 hPa NNE 4.3 km/h 7.4 km/h 83 % 0 mm
17:11 8.3 °C 5.6 °C 1020.5 hPa North 8 km/h 14.8 km/h 83 % 0 mm
17:16 8.2 °C 5.8 °C 1020.5 hPa NE 7.1 km/h 11.1 km/h 85 % 0 mm
17:21 8.1 °C 5.7 °C 1020.2 hPa NE 7.6 km/h 14.8 km/h 85 % 0 mm
17:26 7.9 °C 5.9 °C 1020.2 hPa NE 6.9 km/h 18.5 km/h 87 % 0 mm
17:31 7.8 °C 5.7 °C 1020.2 hPa NNE 9.7 km/h 24.1 km/h 87 % 0 mm
17:36 7.6 °C 5.9 °C 1020.2 hPa North 15.8 km/h 24.1 km/h 89 % 0 mm
17:41 7.5 °C 5.9 °C 1019.9 hPa NNE 12.4 km/h 18.5 km/h 90 % 0 mm
17:46 7.4 °C 6 °C 1019.9 hPa NNE 12.2 km/h 22.2 km/h 91 % 0 mm
17:51 7.3 °C 5.9 °C 1019.9 hPa North 13.2 km/h 27.8 km/h 91 % 0 mm
17:56 7.3 °C 6.1 °C 1020.2 hPa North 20.3 km/h 31.5 km/h 92 % 0 mm
18:01 7.2 °C 5.9 °C 1020.2 hPa ENE 14 km/h 24.1 km/h 92 % 0.25 mm
18:06 7.1 °C 5.9 °C 1020.2 hPa North 15 km/h 22.2 km/h 92 % 0.25 mm
18:11 7.1 °C 5.8 °C 1020.2 hPa North 16.3 km/h 31.5 km/h 92 % 0.25 mm
18:16 7 °C 5.8 °C 1020.5 hPa NE 16.4 km/h 25.9 km/h 92 % 0.25 mm
18:21 6.9 °C 5.7 °C 1020.5 hPa NNE 15.6 km/h 24.1 km/h 92 % 0.25 mm
18:26 6.8 °C 5.6 °C 1020.9 hPa NE 15.9 km/h 20.9 km/h 92 % 0.25 mm
18:31 6.7 °C 5.7 °C 1020.9 hPa NNE 16.7 km/h 25.7 km/h 93 % 0.25 mm
18:36 6.7 °C 5.6 °C 1020.9 hPa North 15.8 km/h 22.2 km/h 93 % 0.25 mm
18:41 6.6 °C 5.6 °C 1020.9 hPa NNE 18.5 km/h 33.3 km/h 93 % 0.25 mm
18:46 6.6 °C 5.5 °C 1021.2 hPa North 13.2 km/h 27.8 km/h 93 % 0.25 mm
18:51 6.6 °C 5.5 °C 1021.2 hPa North 9 km/h 17.7 km/h 93 % 0.25 mm
18:56 6.6 °C 5.5 °C 1021.2 hPa NNE 9.5 km/h 18.5 km/h 93 % 0.25 mm
19:01 6.6 °C 5.7 °C 1021.6 hPa NNE 9.3 km/h 18.5 km/h 94 % 0 mm
19:06 6.5 °C 5.6 °C 1021.6 hPa North 13 km/h 19.3 km/h 94 % 0 mm
19:12 6.5 °C 5.6 °C 1021.9 hPa NNE 13 km/h 14.5 km/h 94 % 0 mm
19:17 6.5 °C 5.6 °C 1021.9 hPa NNE 11.7 km/h 18.5 km/h 94 % 0 mm
19:22 6.5 °C 5.6 °C 1021.9 hPa NNE 18.5 km/h 31.5 km/h 94 % 0 mm
19:27 6.4 °C 5.6 °C 1021.6 hPa NNE 11.1 km/h 18.5 km/h 94 % 0.25 mm
19:32 6.4 °C 5.6 °C 1021.6 hPa NE 13 km/h 22.2 km/h 94 % 0.25 mm
19:37 6.3 °C 5.4 °C 1021.6 hPa NNE 16.6 km/h 24.1 km/h 94 % 0.25 mm
19:42 6.3 °C 5.4 °C 1021.2 hPa NNE 12.7 km/h 20.9 km/h 94 % 0.25 mm
19:47 6.2 °C 5.3 °C 1021.2 hPa North 14.5 km/h 24.1 km/h 94 % 0.25 mm
19:52 6.2 °C 5.3 °C 1021.2 hPa East 10.8 km/h 16.7 km/h 94 % 0.25 mm
19:57 6.2 °C 5.3 °C 1021.6 hPa NNE 14.2 km/h 19.3 km/h 94 % 0.25 mm
20:07 6.1 °C 5.2 °C 1021.6 hPa NE 12.4 km/h 16.7 km/h 94 % 0.25 mm
20:13 6 °C 5.1 °C 1021.9 hPa NNE 9.2 km/h 16.7 km/h 94 % 0.25 mm
20:18 5.9 °C 5.1 °C 1021.9 hPa NNE 13.4 km/h 18.5 km/h 94 % 0.51 mm
20:28 5.8 °C 4.9 °C 1021.9 hPa North 18.7 km/h 31.5 km/h 94 % 0.25 mm
20:33 5.8 °C 5.1 °C 1021.9 hPa NNE 16.7 km/h 24.1 km/h 95 % 0.25 mm
20:38 5.8 °C 5.1 °C 1021.9 hPa NNE 18.2 km/h 29 km/h 95 % 0.25 mm
20:43 5.7 °C 4.8 °C 1021.9 hPa North 14.6 km/h 25.9 km/h 94 % 0.25 mm
20:48 5.7 °C 4.8 °C 1021.9 hPa NE 18.3 km/h 25.9 km/h 94 % 0.25 mm
20:53 5.7 °C 4.9 °C 1021.9 hPa North 13.2 km/h 16.7 km/h 95 % 0.25 mm
20:58 5.7 °C 4.9 °C 1021.9 hPa NNE 15.8 km/h 29.6 km/h 95 % 0.25 mm
21:03 5.7 °C 4.9 °C 1021.9 hPa NNE 8.7 km/h 18.5 km/h 95 % 0.25 mm
21:08 5.7 °C 5 °C 1021.9 hPa NE 11.7 km/h 18.5 km/h 95 % 0.51 mm
21:13 5.8 °C 5.1 °C 1021.9 hPa North 13.7 km/h 27.8 km/h 95 % 0.51 mm
21:18 5.8 °C 5.1 °C 1021.9 hPa NNE 8.7 km/h 20.4 km/h 95 % 0.25 mm
21:23 5.8 °C 5.2 °C 1021.6 hPa North 15 km/h 27.8 km/h 96 % 0.25 mm
21:28 5.9 °C 5.3 °C 1021.6 hPa NNE 13 km/h 22.2 km/h 96 % 0.25 mm
21:34 5.9 °C 5.3 °C 1021.6 hPa NNE 12.9 km/h 24.1 km/h 96 % 0.25 mm
21:39 5.9 °C 5.3 °C 1021.6 hPa NNE 14.8 km/h 25.7 km/h 96 % 0.25 mm
21:44 5.9 °C 5.3 °C 1020.9 hPa ENE 13.4 km/h 29.6 km/h 96 % 0.25 mm
21:49 5.9 °C 5.3 °C 1020.9 hPa NNE 12.1 km/h 18.5 km/h 96 % 0.25 mm
21:54 6 °C 5.4 °C 1020.9 hPa North 12.7 km/h 24.1 km/h 96 % 0.51 mm
21:59 6 °C 5.4 °C 1020.9 hPa NE 14.3 km/h 20.4 km/h 96 % 0.51 mm
22:04 6 °C 5.4 °C 1020.9 hPa NNE 11.9 km/h 18.5 km/h 96 % 0.25 mm
22:09 6.1 °C 5.4 °C 1020.9 hPa North 10 km/h 18.5 km/h 96 % 0.25 mm
22:14 6.1 °C 5.4 °C 1020.9 hPa NNE 14 km/h 31.5 km/h 96 % 0.25 mm
22:19 6.1 °C 5.4 °C 1013.1 hPa North 16.1 km/h 31.5 km/h 96 % 0.25 mm
22:23 6.1 °C 5.4 °C 1020.5 hPa NE 8.7 km/h 18.5 km/h 96 % 0.25 mm
22:28 6.1 °C 5.4 °C 1020.5 hPa NNE 13.8 km/h 22.2 km/h 96 % 0.25 mm
22:33 6 °C 5.4 °C 1020.5 hPa NNE 12.2 km/h 24.1 km/h 96 % 0.25 mm
22:38 6 °C 5.4 °C 1020.5 hPa NE 11.9 km/h 31.5 km/h 96 % 0.51 mm
22:43 5.9 °C 5.3 °C 1020.5 hPa NNE 18.8 km/h 27.8 km/h 96 % 0.51 mm
22:48 5.9 °C 5.3 °C 1020.9 hPa NNE 14.6 km/h 22.2 km/h 96 % 0.51 mm
22:53 5.8 °C 5.2 °C 1020.5 hPa ENE 17.4 km/h 25.9 km/h 96 % 0.25 mm
22:58 5.8 °C 5.2 °C 1020.9 hPa ENE 13.7 km/h 22.2 km/h 96 % 0.25 mm
23:03 5.7 °C 5.1 °C 1020.9 hPa NE 8.7 km/h 29.6 km/h 96 % 0.25 mm
23:08 5.7 °C 5.1 °C 1020.9 hPa East 6.6 km/h 14.8 km/h 96 % 0.25 mm
23:13 5.7 °C 5.1 °C 1020.9 hPa ENE 10.8 km/h 18.5 km/h 96 % 0.25 mm
23:18 5.7 °C 5.1 °C 1020.9 hPa NE 9.5 km/h 14.5 km/h 96 % 0.51 mm
23:23 5.7 °C 5.1 °C 1020.9 hPa East 10.5 km/h 18.5 km/h 96 % 0.51 mm
23:28 5.7 °C 5.1 °C 1020.9 hPa East 6.3 km/h 18.5 km/h 96 % 0.51 mm
23:33 5.8 °C 5.2 °C 1020.9 hPa NNE 9.8 km/h 16.7 km/h 96 % 0.51 mm
23:38 5.7 °C 5.1 °C 1020.9 hPa NNE 7.2 km/h 14.8 km/h 96 % 0.25 mm
23:43 5.7 °C 5.1 °C 1020.9 hPa ENE 12.6 km/h 18.5 km/h 96 % 0.25 mm
23:49 5.7 °C 5.1 °C 1020.9 hPa ENE 8.4 km/h 11.3 km/h 96 % 0.25 mm
23:54 5.8 °C 5.2 °C 1020.9 hPa ENE 6.1 km/h 16.7 km/h 96 % 0.25 mm
23:59 5.8 °C 5.2 °C 1020.9 hPa ENE 9.8 km/h 22.2 km/h 96 % 0.25 mm
Crab Meadow Weather
Compliments of Weather Underground - 3 mb

Script developed by  Jim McMurry - jmcmurry@mwt.net Adapted for the template by  Wim van der Kuil - Leuven-Template.eu

Recycling: An estimated 80,000,000 Hershey's Kisses are wrapped each day, using enough aluminum foil to cover over 50 acres of space -- that's almost 40 football fields. All that foil is recyclable, but not many people realize it.